Location: *
(51.1248°S, 108.4023°W)
Time: 08:44:40
(UTC+00:00)

Envisat - Pass Details

Date: 29 September 2021
Orbit: 764 x 766 km, 98.2° (Epoch: 27 October)

Event Time Altitude Azimuth Distance (km) Brightness Sun altitude
Rises 10:16:36 0° 47° (NE) 3,239 6.4 -22.5°
Reaches altitude 10° 10:19:06 10° 56° (NE) 2,320 5.7 -22.2°
Maximum altitude 10:23:35 32° 117° (ESE) 1,319 4.9 -21.6°
Drops below altitude 10° 10:28:07 10° 179° (S) 2,344 5.9 -21.0°
Sets 10:30:39 0° 188° (S) 3,278 6.6 -20.7°
